Lid_Strength_Index
1 1 1 1 1 1 0 0 -0 0 0 0 0 0 0 -0 0 4 7 5 2 -2 -1 2 4 4 3 7 6 5 12 14 13 12 11 8 9 8 8 7 6 5 6 5 2
1 1 1 1 1 1 1 0 0 0 0 0 0 0 0 -0 3 6 2 -0 -2 -2 2 4 7 6 6 6 7 8 12 12 9 9 9 8 9 10 8 8 8 7 5 3 3
1 1 1 1 1 1 1 0 0 0 1 0 0 0 0 1 7 10 0 -1 -2 -0 3 2 3 6 8 7 7 8 11 8 8 7 6 7 9 9 9 10 7 7 6 4 4
1 1 1 1 1 1 0 0 0 0 0 0 0 -0 -1 3 15 7 -1 -1 -1 2 2 3 5 9 9 9 7 10 8 8 7 7 7 8 8 11 8 8 7 5 5 4 5
1 0 0 0 0 0 0 0 0 0 0 0 0 -0 2 7 8 4 -1 1 3 4 3 5 8 9 9 8 7 10 8 7 7 7 8 7 9 10 9 9 7 5 5 5 5
1 0 0 0 0 0 0 0 0 -0 -0 0 0 -0 4 9 4 3 3 3 3 4 5 4 7 6 7 8 8 7 7 8 7 8 7 9 9 10 10 9 6 5 5 5 4
0 0 -0 -0 0 0 -0 0 -0 -0 -0 0 0 1 4 6 3 3 2 3 3 4 5 4 4 7 8 8 6 7 10 9 8 9 9 8 10 11 8 8 7 6 6 5 4
0 0 0 -0 -0 -0 -0 -0 -1 -1 -1 -1 -0 1 7 2 3 3 3 3 2 2 3 3 3 5 8 6 7 10 10 14 9 9 9 9 13 10 8 8 7 7 7 6 5
0 0 0 0 -0 -0 -1 -0 -1 -1 -1 -1 2 5 8 2 5 4 2 4 3 3 2 1 3 6 7 10 12 12 15 14 12 9 10 10 12 10 7 8 8 7 6 6 5
1 1 0 0 0 -0 -1 -0 -1 0 0 0 2 7 6 7 4 4 3 2 4 4 5 5 7 9 10 12 17 16 15 13 13 10 10 11 11 9 8 8 8 8 8 7 6
1 1 1 1 0 0 1 4 6 7 6 7 7 7 6 4 3 4 3 4 5 7 9 7 11 14 11 10 10 12 13 13 12 10 11 11 11 10 8 8 8 9 9 10 9
1 1 1 1 0 0 3 5 6 5 8 5 6 6 4 4 6 5 4 8 8 10 8 10 13 9 8 9 10 11 12 13 12 10 11 12 12 10 8 8 8 7 7 8 10
2 1 1 1 1 4 4 4 2 4 9 7 5 6 5 4 6 6 6 7 8 10 10 12 10 8 9 10 12 11 12 12 13 11 11 12 13 11 9 8 8 10 9 10 10
2 2 1 0 5 5 5 2 3 4 12 10 8 6 4 4 7 4 5 6 8 11 10 11 8 10 11 12 11 14 10 11 12 14 17 12 19 13 13 11 12 13 12 12 12
2 2 1 1 5 6 4 3 4 6 17 9 7 4 4 7 7 6 3 5 9 9 11 11 11 11 12 11 10 12 10 11 12 14 15 15 17 14 15 14 14 14 13 13 12
1 2 1 4 5 5 3 4 4 12 17 10 7 8 8 7 7 6 6 4 5 9 9 10 8 9 11 9 9 9 11 12 13 14 19 15 16 16 15 14 15 14 12 12 12
2 2 2 2 7 4 4 6 12 16 10 11 10 8 9 10 9 9 9 10 12 15 15 12 11 9 8 11 9 11 14 19 20 20 20 15 15 14 14 15 14 12 12 13 13
2 2 3 3 4 4 6 10 17 12 12 8 9 9 11 10 10 9 11 11 9 11 14 16 17 11 8 11 13 13 13 18 22 22 19 14 17 14 14 14 13 12 13 13 12
4 8 7 5 3 5 10 14 13 12 10 10 9 12 12 10 11 11 12 12 11 10 14 15 15 9 9 9 10 13 16 12 17 19 19 17 16 15 13 13 13 13 13 13 13
8 9 9 4 4 8 12 12 12 8 9 9 14 12 14 12 12 12 12 11 11 9 9 12 16 10 10 9 11 11 10 16 16 20 21 20 19 17 15 14 13 13 13 13 13
10 12 9 5 7 11 14 13 10 7 8 10 11 12 12 13 12 12 12 10 10 10 10 11 12 13 11 12 13 13 14 14 13 16 18 20 18 15 15 13 13 13 13 13 13
12 15 9 8 12 14 14 10 7 8 9 9 10 10 11 11 12 12 12 10 9 11 12 11 13 16 14 12 12 12 13 13 16 18 19 19 17 15 15 14 13 13 13 12 12
13 12 8 8 16 16 13 11 9 9 9 10 11 9 10 12 13 12 10 9 9 10 12 13 14 18 17 14 13 12 13 14 15 16 19 20 17 14 15 14 12 12 12 12 11
13 16 13 12 14 15 14 13 12 9 9 9 11 11 12 13 12 12 11 9 9 10 6 10 14 16 18 16 15 16 14 14 15 18 19 18 17 16 15 13 12 12 12 12 12
13 16 14 15 15 15 13 13 13 12 10 10 11 11 12 14 13 14 12 11 10 8 11 12 15 16 15 15 15 16 15 15 16 16 16 16 15 13 13 12 12 12 12 12 12
14 14 14 14 14 16 13 14 13 11 11 11 13 11 12 13 13 14 13 13 13 12 13 13 15 15 16 13 14 14 14 14 14 15 15 15 15 13 14 13 12 12 12 12 12
11 11 12 14 16 16 15 14 12 11 10 10 11 12 13 12 11 11 12 12 12 14 14 14 15 15 17 13 13 15 13 14 14 14 14 16 14 13 14 13 13 13 12 12 12